| time (UTC) | temp C | wind direction | speed KPH | gust KPH | rain 1hr cm | rain 24hr cm | rain mn cm | humidity % | barometer mb |
| 20260902204515 | 34 | 307 | 8.0 | 20.9 | 0.00 | 0.00 | 0.00 | 46 | 1007.4 |
| 20260902203532 | 35 | 276 | 14.5 | 24.1 | 0.00 | 0.00 | 0.00 | 43 | 1007.5 |
| 20260902202527 | 36 | 269 | 14.5 | 30.6 | 0.00 | 0.00 | 0.00 | 43 | 1007.7 |
| 20260902201523 | 35 | 291 | 11.3 | 24.1 | 0.00 | 0.00 | 0.00 | 43 | 1007.8 |
| 20260902200519 | 35 | 276 | 14.5 | 27.4 | 0.00 | 0.00 | 0.00 | 43 | 1007.9 |
| 20260902195516 | 34 | 284 | 12.9 | 22.5 | 0.00 | 0.00 | 0.00 | 47 | 1008.0 |
| 20260902194532 | 34 | 303 | 9.7 | 20.9 | 0.00 | 0.00 | 0.00 | 47 | 1008.1 |
| 20260902193528 | 35 | 298 | 8.0 | 17.7 | 0.00 | 0.00 | 0.00 | 47 | 1008.4 |
| 20260902192524 | 35 | 292 | 9.7 | 24.1 | 0.00 | 0.00 | 0.00 | 45 | 1008.5 |
| 20260902191520 | 35 | 272 | 12.9 | 27.4 | 0.00 | 0.00 | 0.00 | 48 | 1008.6 |
| 20260902190516 | 35 | 274 | 11.3 | 24.1 | 0.00 | 0.00 | 0.00 | 49 | 1008.6 |
| 20260902185533 | 35 | 265 | 11.3 | 24.1 | 0.00 | 0.00 | 0.00 | 49 | 1008.8 |
| 20260902184549 | 35 | 332 | 8.0 | 22.5 | 0.00 | 0.00 | 0.00 | 51 | 1008.5 |
| 20260902183525 | 34 | 327 | 9.7 | 24.1 | 0.00 | 0.00 | 0.00 | 52 | 1008.7 |
| 20260902182523 | 34 | 337 | 9.7 | 16.1 | 0.00 | 0.00 | 0.00 | 51 | 1008.8 |
| 20260902181517 | 34 | 336 | 8.0 | 16.1 | 0.00 | 0.00 | 0.00 | 52 | 1009.0 |
| 20260902180533 | 33 | 359 | 8.0 | 14.5 | 0.00 | 0.00 | 0.00 | 54 | 1009.3 |
| 20260902175529 | 33 | 3 | 9.7 | 17.7 | 0.00 | 0.00 | 0.00 | 56 | 1009.4 |
| 20260902174525 | 32 | 2 | 4.8 | 12.9 | 0.00 | 0.00 | 0.00 | 55 | 1009.4 |
| 20260902173522 | 33 | 1 | 6.4 | 12.9 | 0.00 | 0.00 | 0.00 | 53 | 1009.5 |
| 20260902172518 | 34 | 357 | 8.0 | 16.1 | 0.00 | 0.00 | 0.00 | 52 | 1009.6 |
| 20260902171554 | 33 | 352 | 9.7 | 22.5 | 0.00 | 0.00 | 0.00 | 52 | 1009.7 |
| 20260902170532 | 33 | 194 | 11.3 | 27.4 | 0.00 | 0.00 | 0.00 | 55 | 1009.9 |
| 20260902165526 | 33 | 107 | 4.8 | 16.1 | 0.00 | 0.00 | 0.00 | 62 | 1009.9 |
| 20260902164523 | 33 | 104 | 6.4 | 11.3 | 0.00 | 0.00 | 0.00 | 63 | 1010.1 |
| 20260902163522 | 32 | 143 | 8.0 | 22.5 | 0.00 | 0.00 | 0.00 | 63 | 1009.9 |
| 20260902162535 | 32 | 98 | 3.2 | 9.7 | 0.00 | 0.00 | 0.00 | 68 | 1010.3 |
| 20260902161531 | 32 | 103 | 4.8 | 11.3 | 0.00 | 0.00 | 0.00 | 68 | 1010.3 |
| 20260902160527 | 31 | 107 | 4.8 | 14.5 | 0.00 | 0.00 | 0.00 | 68 | 1010.4 |
| 20260902155524 | 31 | 98 | 4.8 | 14.5 | 0.00 | 0.00 | 0.00 | 70 | 1010.5 |
| 20260902154520 | 31 | 104 | 6.4 | 12.9 | 0.00 | 0.00 | 0.00 | 70 | 1010.4 |
| 20260902153516 | 31 | 101 | 4.8 | 9.7 | 0.00 | 0.00 | 0.00 | 71 | 1010.5 |
| 20260902152532 | 31 | 103 | 6.4 | 11.3 | 0.00 | 0.00 | 0.00 | 71 | 1010.5 |
| 20260902151548 | 30 | 99 | 3.2 | 6.4 | 0.00 | 0.00 | 0.00 | 72 | 1010.4 |
| 20260902150525 | 30 | 150 | 6.4 | 16.1 | 0.00 | 0.00 | 0.00 | 72 | 1010.4 |
| 20260902145521 | 30 | 146 | 6.4 | 12.9 | 0.00 | 0.00 | 0.00 | 74 | 1010.4 |
| 20260902144517 | 29 | 166 | 6.4 | 16.1 | 0.00 | 0.00 | 0.00 | 75 | 1010.4 |
| 20260902143533 | 29 | 100 | 1.6 | 6.4 | 0.00 | 0.00 | 0.00 | 76 | 1010.3 |
| 20260902142529 | 28 | 167 | 4.8 | 12.9 | 0.00 | 0.00 | 0.00 | 77 | 1010.5 |
| 20260902141526 | 28 | 100 | 1.6 | 3.2 | 0.00 | 0.00 | 0.00 | 77 | 1010.4 |
| 20260902140523 | 28 | 181 | 6.4 | 14.5 | 0.00 | 0.00 | 0.00 | 78 | 1010.4 |
| 20260902135519 | 28 | 150 | 6.4 | 14.5 | 0.00 | 0.00 | 0.00 | 79 | 1010.6 |
| 20260902134534 | 27 | 160 | 4.8 | 11.3 | 0.00 | 0.00 | 0.00 | 80 | 1010.4 |
| 20260902133530 | 27 | 143 | 4.8 | 12.9 | 0.00 | 0.00 | 0.00 | 81 | 1010.5 |
| 20260902132526 | 27 | 123 | 3.2 | 9.7 | 0.00 | 0.00 | 0.00 | 82 | 1010.5 |
| 20260902131543 | 26 | 154 | 6.4 | 12.9 | 0.00 | 0.00 | 0.00 | 82 | 1010.4 |
| 20260902130519 | 26 | 137 | 4.8 | 12.9 | 0.00 | 0.00 | 0.00 | 83 | 1010.4 |
| 20260902125555 | 26 | 145 | 6.4 | 12.9 | 0.00 | 0.00 | 0.00 | 83 | 1010.4 |
| 20260902124611 | 26 | 130 | 4.8 | 12.9 | 0.00 | 0.00 | 0.00 | 84 | 1010.3 |
| 20260902123527 | 25 | 134 | 6.4 | 12.9 | 0.00 | 0.00 | 0.00 | 84 | 1010.3 |
| 20260902122544 | 25 | 161 | 6.4 | 16.1 | 0.00 | 0.00 | 0.00 | 84 | 1010.3 |
| 20260902121520 | 25 | 143 | 6.4 | 11.3 | 0.00 | 0.00 | 0.00 | 84 | 1010.3 |
| 20260902120516 | 25 | 130 | 4.8 | 12.9 | 0.00 | 0.00 | 0.00 | 84 | 1010.2 |
| 20260902115553 | 25 | 107 | 4.8 | 9.7 | 0.00 | 0.00 | 0.00 | 84 | 1010.1 |
| 20260902114530 | 25 | 110 | 4.8 | 9.7 | 0.00 | 0.00 | 0.00 | 84 | 1010.1 |
| 20260902113525 | 25 | 113 | 4.8 | 11.3 | 0.00 | 0.00 | 0.00 | 84 | 1010.1 |
| 20260902112521 | 25 | 170 | 6.4 | 11.3 | 0.00 | 0.00 | 0.00 | 84 | 1010.3 |
| 20260902111517 | 25 | 140 | 4.8 | 12.9 | 0.00 | 0.00 | 0.00 | 84 | 1010.3 |
| 20260902110634 | 25 | 137 | 4.8 | 6.4 | 0.00 | 0.00 | 0.00 | 84 | 1010.4 |
| 20260902105529 | 25 | 154 | 6.4 | 12.9 | 0.00 | 0.00 | 0.00 | 85 | 1010.4 |
| 20260902104547 | 25 | 120 | 4.8 | 11.3 | 0.00 | 0.00 | 0.00 | 85 | 1010.2 |
| 20260902103521 | 25 | 119 | 4.8 | 12.9 | 0.00 | 0.00 | 0.00 | 85 | 1010.0 |
| 20260902102518 | 25 | 120 | 1.6 | 9.7 | 0.00 | 0.00 | 0.00 | 85 | 1010.0 |
| 20260902101534 | 25 | 107 | 1.6 | 3.2 | 0.00 | 0.00 | 0.00 | 85 | 1010.0 |
| 20260902100551 | 25 | 107 | 1.6 | 3.2 | 0.00 | 0.00 | 0.00 | 85 | 1010.0 |
| 20260902095528 | 25 | 109 | 1.6 | 4.8 | 0.00 | 0.00 | 0.00 | 85 | 1009.9 |
| 20260902094522 | 25 | 107 | 0.0 | 4.8 | 0.00 | 0.00 | 0.00 | 85 | 1010.0 |
| 20260902093519 | 25 | 105 | 1.6 | 4.8 | 0.00 | 0.00 | 0.00 | 85 | 1010.0 |
| 20260902092535 | 25 | 110 | 1.6 | 4.8 | 0.00 | 0.00 | 0.00 | 85 | 1010.1 |
| 20260902091531 | 25 | 110 | 1.6 | 4.8 | 0.00 | 0.00 | 0.00 | 85 | 1010.0 |
| 20260902090527 | 25 | 110 | 1.6 | 4.8 | 0.00 | 0.00 | 0.00 | 85 | 1009.8 |
| 20260902085523 | 24 | 109 | 3.2 | 4.8 | 0.00 | 0.00 | 0.00 | 85 | 1009.8 |
| 20260902084520 | 24 | 110 | 3.2 | 4.8 | 0.00 | 0.00 | 0.00 | 84 | 1009.8 |
| 20260902083516 | 24 | 111 | 3.2 | 11.3 | 0.00 | 0.00 | 0.00 | 84 | 1009.9 |
| 20260902082532 | 24 | 112 | 3.2 | 4.8 | 0.00 | 0.00 | 0.00 | 84 | 1010.0 |
| 20260902081530 | 24 | 112 | 1.6 | 4.8 | 0.00 | 0.00 | 0.00 | 84 | 1009.9 |
| 20260902080544 | 24 | 111 | 3.2 | 6.4 | 0.00 | 0.00 | 0.00 | 84 | 1009.6 |
| 20260902075520 | 24 | 111 | 1.6 | 6.4 | 0.00 | 0.00 | 0.00 | 84 | 1009.6 |
| 20260902074537 | 24 | 111 | 3.2 | 6.4 | 0.00 | 0.00 | 0.00 | 84 | 1009.8 |
| 20260902073533 | 24 | 111 | 3.2 | 6.4 | 0.00 | 0.00 | 0.00 | 84 | 1009.8 |
| 20260902072549 | 24 | 111 | 3.2 | 6.4 | 0.00 | 0.00 | 0.00 | 84 | 1009.7 |
| 20260902071525 | 24 | 111 | 1.6 | 4.8 | 0.00 | 0.00 | 0.00 | 83 | 1009.9 |
| 20260902070521 | 24 | 111 | 1.6 | 4.8 | 0.00 | 0.00 | 0.00 | 83 | 1009.9 |
| 20260902065517 | 24 | 111 | 0.0 | 1.6 | 0.00 | 0.00 | 0.00 | 83 | 1009.9 |
| 20260902064533 | 24 | 111 | 1.6 | 4.8 | 0.00 | 0.00 | 0.00 | 83 | 1010.0 |
| 20260902063530 | 24 | 111 | 1.6 | 3.2 | 0.00 | 0.00 | 0.00 | 83 | 1010.0 |
| 20260902062525 | 24 | 111 | 1.6 | 3.2 | 0.00 | 0.00 | 0.00 | 83 | 1010.3 |
| 20260902061522 | 24 | 111 | 1.6 | 3.2 | 0.00 | 0.00 | 0.00 | 82 | 1010.2 |
| 20260902060518 | 25 | 111 | 1.6 | 1.6 | 0.00 | 0.00 | 0.00 | 82 | 1010.4 |
| 20260902055534 | 25 | 111 | 1.6 | 3.2 | 0.00 | 0.00 | 0.00 | 82 | 1010.7 |
| 20260902054530 | 25 | 111 | 1.6 | 3.2 | 0.00 | 0.00 | 0.00 | 82 | 1010.6 |
| 20260902053547 | 25 | 111 | 1.6 | 3.2 | 0.00 | 0.00 | 0.00 | 82 | 1010.7 |
| 20260902052523 | 25 | 111 | 1.6 | 3.2 | 0.00 | 0.00 | 0.00 | 81 | 1010.7 |
| 20260902051519 | 25 | 111 | 0.0 | 1.6 | 0.00 | 0.00 | 0.00 | 81 | 1010.7 |
| 20260902050555 | 25 | 111 | 1.6 | 3.2 | 0.00 | 0.00 | 0.00 | 81 | 1010.6 |
| 20260902045551 | 25 | 111 | 1.6 | 4.8 | 0.00 | 0.00 | 0.00 | 80 | 1010.7 |
| 20260902044527 | 25 | 0.0 | 0.0 | 0.00 | 0.00 | 0.00 | 80 | 1010.7 | |
| 20260902043524 | 25 | 111 | 1.6 | 1.6 | 0.00 | 0.00 | 0.00 | 80 | 1010.6 |
| 20260902042520 | 25 | 111 | 1.6 | 1.6 | 0.00 | 0.00 | 0.00 | 79 | 1010.5 |
| 20260902041535 | 25 | 0.0 | 0.0 | 0.00 | 0.00 | 0.00 | 79 | 1010.5 | |
| 20260902040531 | 25 | 0.0 | 0.0 | 0.00 | 0.00 | 0.00 | 79 | 1010.5 | |
| 20260902035526 | 25 | 112 | 0.0 | 1.6 | 0.00 | 0.00 | 0.00 | 78 | 1010.5 |
| 20260902034524 | 25 | 112 | 0.0 | 4.8 | 0.00 | 0.00 | 0.00 | 78 | 1010.4 |
| 20260902033520 | 26 | 112 | 0.0 | 1.6 | 0.00 | 0.00 | 0.00 | 78 | 1010.3 |
| 20260902032535 | 26 | 112 | 0.0 | 1.6 | 0.00 | 0.00 | 0.00 | 77 | 1010.3 |
| 20260902031531 | 26 | 112 | 0.0 | 1.6 | 0.00 | 0.00 | 0.00 | 77 | 1010.3 |
| 20260902030527 | 26 | 112 | 0.0 | 1.6 | 0.00 | 0.00 | 0.00 | 76 | 1010.2 |
| 20260902025523 | 26 | 0.0 | 0.0 | 0.00 | 0.00 | 0.00 | 75 | 1010.2 | |
| 20260902024521 | 27 | 137 | 0.0 | 1.6 | 0.00 | 0.00 | 0.00 | 75 | 1010.1 |
| 20260902023515 | 27 | 137 | 0.0 | 1.6 | 0.00 | 0.00 | 0.00 | 74 | 1010.1 |
| 20260902022553 | 27 | 162 | 0.0 | 1.6 | 0.00 | 0.00 | 0.00 | 73 | 1010.2 |
| 20260902021548 | 28 | 166 | 1.6 | 6.4 | 0.00 | 0.00 | 0.00 | 73 | 1010.1 |
| 20260902020544 | 28 | 178 | 3.2 | 11.3 | 0.00 | 0.00 | 0.00 | 73 | 1010.2 |
| 20260902015540 | 28 | 169 | 3.2 | 6.4 | 0.00 | 0.00 | 0.00 | 73 | 1010.1 |
| 20260902014518 | 28 | 181 | 3.2 | 4.8 | 0.00 | 0.00 | 0.00 | 73 | 1010.2 |
| 20260902013532 | 28 | 183 | 4.8 | 11.3 | 0.00 | 0.00 | 0.00 | 72 | 1010.2 |
| 20260902012528 | 28 | 184 | 4.8 | 9.7 | 0.00 | 0.00 | 0.00 | 72 | 1010.0 |
| 20260902011545 | 28 | 184 | 4.8 | 11.3 | 0.00 | 0.00 | 0.00 | 73 | 1009.8 |
| 20260902010521 | 28 | 188 | 4.8 | 14.5 | 0.00 | 0.00 | 0.00 | 73 | 1009.8 |
| 20260902005600 | 28 | 189 | 6.4 | 12.9 | 0.00 | 0.00 | 0.00 | 74 | 1009.6 |
| 20260902004533 | 28 | 185 | 4.8 | 12.9 | 0.00 | 0.00 | 0.00 | 74 | 1009.4 |
| 20260902003530 | 28 | 188 | 6.4 | 16.1 | 0.00 | 0.00 | 0.00 | 75 | 1009.3 |
| 20260902002526 | 28 | 184 | 4.8 | 11.3 | 0.00 | 0.00 | 0.00 | 75 | 1009.1 |
| 20260902001522 | 28 | 187 | 6.4 | 16.1 | 0.00 | 0.00 | 0.00 | 76 | 1009.4 |
| 20260902000518 | 28 | 181 | 3.2 | 9.7 | 0.00 | 0.00 | 0.00 | 76 | 1009.3 |
| 20260901235534 | 28 | 150 | 1.6 | 6.4 | 0.00 | 0.00 | 0.00 | 75 | 1009.3 |
| 20260901234530 | 28 | 143 | 0.0 | 1.6 | 0.00 | 0.00 | 0.00 | 75 | 1009.1 |
| 20260901233530 | 28 | 113 | 0.0 | 1.6 | 0.00 | 0.00 | 0.00 | 74 | 1009.3 |
| 20260901232524 | 28 | 113 | 1.6 | 1.6 | 0.00 | 0.00 | 0.00 | 73 | 1009.3 |
| 20260901231519 | 29 | 0.0 | 0.0 | 0.00 | 0.00 | 0.00 | 73 | 1009.3 | |
| 20260901230515 | 29 | 113 | 1.6 | 3.2 | 0.00 | 0.00 | 0.00 | 72 | 1009.3 |
| 20260901225531 | 29 | 113 | 3.2 | 4.8 | 0.00 | 0.00 | 0.00 | 72 | 1009.2 |
| 20260901224527 | 29 | 114 | 1.6 | 3.2 | 0.00 | 0.00 | 0.00 | 72 | 1009.3 |
| 20260901223525 | 29 | 114 | 3.2 | 4.8 | 0.00 | 0.00 | 0.00 | 72 | 1009.3 |
| 20260901222520 | 29 | 113 | 0.0 | 1.6 | 0.00 | 0.00 | 0.00 | 72 | 1009.4 |
| 20260901221516 | 29 | 114 | 1.6 | 1.6 | 0.00 | 0.00 | 0.00 | 72 | 1009.2 |
| 20260901220532 | 30 | 114 | 1.6 | 3.2 | 0.00 | 0.00 | 0.00 | 72 | 1009.1 |
| 20260901215549 | 29 | 113 | 1.6 | 3.2 | 0.00 | 0.00 | 0.00 | 73 | 1009.1 |
| 20260901214546 | 29 | 113 | 1.6 | 3.2 | 0.00 | 0.00 | 0.00 | 74 | 1009.1 |
| 20260901213521 | 28 | 113 | 1.6 | 3.2 | 0.00 | 0.00 | 0.00 | 75 | 1009.1 |
| 20260901212517 | 28 | 113 | 1.6 | 3.2 | 0.00 | 0.00 | 0.00 | 74 | 1009.2 |
| 20260901211556 | 28 | 113 | 1.6 | 3.2 | 0.00 | 0.00 | 0.00 | 74 | 1009.3 |
| 20260901210529 | 28 | 113 | 1.6 | 4.8 | 0.00 | 0.00 | 0.00 | 73 | 1009.4 |
| 20260901205525 | 28 | 113 | 3.2 | 4.8 | 0.00 | 0.00 | 0.00 | 73 | 1009.4 |